EHI
0 0 0 0 0 0 0 0 0 0 0 0 0 0 0 0 0 0 0 0 0 0 0 0 0 0 0 0 0 0 0 0 0 0 0 0 0 0 0 0 0 0 0 0 0 0 0 0 0
0 0 0 0 0 0 0 0 0 0 0 0 0 0 0 0 0 0 0 0 0 0 0 0 0 0 0 0 0 0 0 0 0 0 0 0 0 0 0 0 0 0 0 0 0 0 0 0 0
0 0 0 0 0 0 0 0 0 0 0 0 0 0 0 0 0 0 0 0 0 0 0 0 0 0 0 0 0 0 0 0 0 0 0 0 0 0 0 0 0 0 0 0 0 0 0 0 0
0 0 0 0 0 0 0 0 0 0 0 0 0 0 0 0 0 0 0 0 0 0 0 0 0 0 0 0 0 0 0 0 0 0 0 0 0 0 0 0 0 0 0 0 0 0 0 0 0
0 0 0 0 0 0 0 0 0 0 0 0 0 0 0 0 0 0 0 0 0 0 0 0 0 0 0 0 0 0 0 0 0 0 0 0 0 0 0 0 0 0 0 0 0 0 0 0 0
0 0 0 0 0 0 0 0 0 0 0 0 0 0 0 0 0 0 0 0 0 0 0 0 0 0 0 0 0 0 0 0 0 0 0 0 0 0 0 0 0 0 0 0 0 0 0 0 0
0 0 0 0 0 0 0 0 0 0 0 0 0 0 0 0 0 0 0 0 0 0 0 0 0 0 0 0 0 0 0 0 0 0 0 0 0 0 0 0 0 0 0 0 0 0 0 0 0
0 0 0 0 0 0 0 0 0 0 0 0 0 0 0 0 0 0 0 0 0 0 0 0 0 0 0 0 0 0 0 0 0 0 0 0 0 0 0 0 0 0 0 0 0 0 0 0 0
0 0 0 0 0 0 0 0 0 0 0 0 0 0 0 0 0 0 0 0 0 0 0 0 0 0 0 0 0 0 0 0 0 0 0 0 0 0 0 0 0 0 0 0 0 0 0 0 0
0 0 0 0 0 0 0 0 0 0 0 0 0 0 0 0 0 0 0 0 0 0 0 0 0 0 0 0 0 0 0 0 0 0 0 0 0 0 0 0 0 0 0 0 0 0 0 0 0
0 0 0 0 0 0 0 0 0 0 0 0 0 0 0 0 0 0 0 0 0 0 0 0 0 0 0 0 0 0 0 0 0 0 0 0 0 0 0 0 0 0 0 0 0 0 0 0 0
0 0 0 0 0 0 0 0 0 0 0 0 0 0 0 0 0 0 0 0 0 0 0 0 0 0 0 0 0 0 0 0 0 0 0 0 0 0 0 0 0 0 0 0 0 0 0 0 0
0 0 0 0 0 0 0 0 0 0 0 0 0 0 0 0 0 0 0 0 0 0 0 0 0 0 0 0 0 0 0 0 0 0 0 0 0 0 0 0 0 0 0 0 0 0 0 0 0
0 0 0 0 0 0 0 0 0 0 0 0 0 0 0 0 0 0 0 0 0 0 0 0 0 0 0 0 0 0 0 0 0 0 0 0 0 0 0 0 0 0 0 0 0 0 0 0 0
0 0 0 0 0 0 0 0 0 0 0 0 0 0 0 0 0 0 0 0 0 0 0 0 0 0 0 0 0 0 0 0 0 0 0 0 0 0 0 0 0 0 0 0 0 0 0 0 0
0 0 0 0 0 0 0 0 0 0 0 0 0 0 0 0 0 0 0 0 0 0 0 0 0 0 0 0 0 0 0 0 0 0 0 0 0 0 0 0 0 0 0 0 0 0 0 0 0
0 0 0 0 0 0 0 0 0 0 0 0 0 0 0 0 0 0 0 0 0 0 0 0 0 0 0 0 0 0 0 0 0 0 0 0 0 0 0 0 0 0 0 0 0 0 0 0 0
0 0 0 0 0 0 0 0 0 0 0 0 0 0 0 0 0 0 0 0 0 0 0 0 0 0 0 0 0 0 0 0 0 0 0 0 0 0 0 0 0 0 0 0 0 0 0 0 0
0 0 0 0 0 0 0 0 0 0 0 0 0 0 0 0 0 0 0 0 0 0 0 0 0 0 0 0 0 0 0 0 0 0 0 0 0 0 0 0 0 0 0 0 0 0 0 0 0
0 0 0 0 0 0 0 0 0 0 0 0 0 0 0 0 0 0 0 0 0 0 0 0 0 0 0 0 0 0 0 0 0 0 0 0 0 0 0 0 0 0 0 0 0 0 0 0 0
0 0 0 0 0 0 0 0 0 0 0 0 0 0 0 0 0 0 0 0 0 0 0 0 0 0 0 0 0 0 0 0 0 0 0 0 0 0 0 0 0 0 0 0 0 0 0 0 0
0 0 0 0 0 0 0 0 0 0 0 0 0 0 0 0 0 0 0 0 0 0 0 0 0 0 0 0 0 0 0 0 0 0 0 0 0 0 0 0 0 0 0 0 0 0 0 0 0
0 0 0 0 0 0 0 0 0 0 0 0 0 0 0 0 0 0 0 0 0 0 0 0 0 0 0 0 0 0 0 0 0 0 0 0 0 0 0 0 0 0 0 0 0 0 0 0 0
0 0 0 0 0 0 0 0 0 0 0 0 0 0 0 0 0 0 0 0 0 0 0 0 0 0 0 0 0 0 0 0 0 0 0 0 0 0 0 0 0 0 0 0 0 0 0 0 0
0 0 0 0 0 0 0 0 0 0 0 0 0 0 0 0 0 0 0 0 0 0 0 0 0 0 0 0 0 0 0 0 0 0 0 0 0 0 0 0 0 0 0 0 0 0 0 0 0
0 0 0 0 0 0 0 0 0 0 0 0 0 0 0 0 0 0 0 0 0 0 0 0 0 0 0 0 0 0 0 0 0 0 0 0 0 0 0 0 0 0 0 0 0 0 0 0 0
0 0 0 0 0 0 0 0 0 0 0 0 0 0 0 0 0 0 0 0 0 0 0 0 0 0 0 0 0 0 0 0 0 0 0 0 0 0 0 0 0 0 0 0 0 0 0 0 0
0 0 0 0 0 0 0 0 0 0 0 0 0 0 0 0 0 0 0 0 0 0 0 0 0 0 0 0 0 0 0 0 0 0 0 0 0 0 0 0 0 0 0 0 0 0 0 0 0
0 0 0 0 0 0 0 0 0 0 0 0 0 0 0 0 0 0 0 0 0 0 0 0 0 0 0 0 0 0 0 0 0 0 0 0 0 0 0 0 0 0 0 0 0 0 0 0 0
0 0 0 0 0 0 0 0 0 0 0 0 0 0 0 0 0 0 0 0 0 0 0 0 0 0 0 0 0 0 0 0 0 0 0 0 0 0 0 0 0 0 0 0 0 0 0 0 0
Wind_Speed
12 12 8 2 3 4 1 3 4 4 4 6 5 3 6 9 6 7 4 8 13 14 14 14 15 14 14 13 13 13 12 12 12 12 12 12 13 13 13 13 13 14 14 14 14 14 14 14 14
10 9 4 3 4 3 3 4 5 7 7 5 2 1 4 7 9 8 5 9 14 14 13 12 15 15 14 14 13 13 12 12 12 12 12 12 12 12 12 12 12 13 13 13 13 13 13 13 13
9 9 4 4 4 2 4 6 8 8 5 2 2 2 5 6 9 8 8 10 12 12 12 14 16 15 14 14 14 13 12 12 12 12 11 11 11 11 11 12 12 12 12 12 12 12 12 12 12
6 4 4 5 4 4 5 6 7 7 4 1 1 5 6 6 5 8 11 10 12 12 13 14 16 15 15 14 14 13 12 12 12 11 11 11 11 11 11 11 11 11 11 11 11 11 11 11 11
3 4 5 5 1 2 4 6 4 4 5 4 2 4 7 5 10 12 9 10 11 12 13 14 16 16 15 15 14 13 13 12 12 11 11 10 10 10 10 9 9 9 9 9 9 9 9 9 9
4 4 5 5 3 3 3 3 3 3 4 4 2 1 6 8 9 9 8 8 10 12 14 13 16 16 15 15 15 14 13 13 12 11 10 10 9 9 8 8 8 7 7 7 7 7 7 7 7
4 4 7 5 3 3 4 3 3 2 2 3 1 0 7 8 9 9 8 8 9 11 13 11 10 11 14 15 14 13 13 12 12 11 10 9 9 8 7 7 6 6 5 5 5 5 5 5 5
3 4 6 5 3 3 4 2 1 3 1 3 1 1 7 8 9 8 8 7 8 9 11 12 10 10 9 9 12 13 12 13 12 11 10 9 8 7 7 6 5 3 3 3 3 3 3 2 3
3 4 5 4 1 2 6 3 2 1 3 1 1 3 8 11 9 8 6 6 7 8 9 11 11 10 10 9 11 11 11 11 11 9 10 8 5 5 5 6 5 3 1 0 1 2 4 5 6
3 4 4 4 5 3 2 2 2 3 5 5 3 6 9 9 8 8 8 9 9 9 9 9 10 10 9 9 8 6 6 7 6 6 7 5 4 3 5 7 6 4 4 4 5 6 6 6 3
5 6 4 2 4 4 2 2 3 4 6 6 3 8 10 9 8 9 9 9 9 9 8 8 8 10 9 6 7 4 4 5 6 7 6 4 3 3 3 3 3 4 5 4 4 5 4 3 1
6 5 4 2 2 1 4 4 5 6 7 4 2 5 10 10 10 10 10 10 10 10 9 8 8 9 9 8 6 5 4 4 4 5 6 4 2 2 2 2 2 2 2 1 1 2 3 2 2
8 6 4 2 2 4 5 6 7 8 8 5 2 3 7 9 10 10 10 9 10 11 10 9 9 9 8 7 5 6 5 5 4 4 4 4 3 2 1 1 1 1 1 0 1 2 2 3 3
4 4 5 5 5 4 6 8 8 9 7 6 5 6 7 9 9 9 10 9 10 11 11 10 9 9 9 7 6 5 5 5 5 4 4 4 3 3 2 1 1 1 0 1 1 2 2 2 2
5 6 7 7 7 4 3 9 11 12 8 7 7 8 9 9 9 9 9 9 9 11 11 11 10 10 10 9 7 5 5 6 5 5 5 5 4 3 2 2 1 1 1 1 1 2 2 3 2
6 7 7 7 7 5 4 9 8 5 7 8 8 8 8 10 9 8 8 8 8 10 11 11 10 10 10 8 7 5 6 6 5 5 5 6 5 4 2 2 1 1 1 0 1 1 2 3 3
8 8 9 6 7 6 7 8 8 5 6 8 8 9 8 8 9 9 9 9 9 9 10 11 10 10 10 9 7 6 6 6 5 5 4 5 5 4 3 2 1 1 1 1 1 1 1 2 3
6 8 6 6 6 5 7 9 10 8 8 8 8 8 8 7 9 9 9 10 9 9 9 10 10 9 9 7 6 5 5 5 4 5 5 6 4 4 3 2 2 1 1 0 0 1 1 1 2
7 7 7 5 1 3 7 11 11 10 9 8 7 7 6 6 6 7 8 9 9 8 9 10 11 10 8 7 7 6 5 5 4 4 6 6 5 5 4 2 2 2 1 1 0 1 2 2 2
9 10 9 6 2 3 7 12 12 11 9 7 6 5 5 4 3 5 7 8 8 8 9 10 11 10 9 7 7 6 6 4 4 4 5 5 5 5 4 3 3 3 1 1 1 1 1 1 1
11 10 9 7 5 6 8 10 9 7 6 6 5 4 4 3 3 5 7 7 8 8 9 9 10 10 10 9 6 6 5 4 3 4 4 5 6 5 5 4 3 3 3 2 1 1 1 1 2
10 8 6 6 6 5 4 7 7 5 5 5 5 4 3 2 3 5 7 7 8 8 7 8 9 9 9 10 9 10 7 6 6 5 5 5 6 6 5 5 4 3 3 2 2 2 1 1 1
6 2 4 5 6 8 8 8 7 6 6 4 4 4 3 2 2 4 7 7 7 7 7 7 8 9 9 10 10 10 7 5 5 6 7 6 5 6 6 5 4 4 3 3 2 2 1 2 2
4 2 3 3 4 8 9 8 7 4 4 3 3 3 3 3 2 3 5 6 6 6 6 7 8 9 9 9 10 10 9 8 8 8 7 6 4 4 6 5 5 4 3 3 3 2 2 2 2
7 5 3 5 6 8 6 7 7 3 2 3 3 2 2 3 4 4 5 6 7 8 7 7 8 9 9 9 9 10 9 9 10 9 8 7 5 4 6 5 5 4 4 4 3 3 3 3 3
11 10 7 5 5 3 4 7 5 3 4 5 3 3 3 3 4 5 6 7 7 8 8 8 9 8 9 9 9 8 8 7 6 8 7 7 6 6 7 7 6 5 5 4 4 3 3 3 4
11 11 9 6 6 5 6 6 5 5 5 5 5 4 3 3 4 5 6 6 7 8 9 9 9 8 9 9 8 8 8 7 7 7 6 6 5 6 7 7 6 5 5 5 4 3 4 3 4
7 7 5 6 5 6 7 8 6 7 8 6 6 5 4 4 4 4 5 6 6 7 8 8 8 8 8 8 8 6 7 7 7 7 7 7 6 6 7 7 6 5 5 5 4 4 4 4 4
10 10 8 6 6 4 4 5 4 7 7 7 5 5 5 5 5 4 4 5 6 6 7 7 8 8 8 8 7 7 7 6 7 6 7 7 6 7 7 7 6 6 5 5 4 4 5 5 5
12 13 11 8 7 6 5 5 1 5 6 6 5 4 4 5 5 5 5 5 6 6 6 7 7 7 7 7 7 7 7 7 7 7 7 7 7 7 7 6 6 6 5 5 5 5 5 5 6
Wind_Direction
290 265 250 258 251 238 152 91 101 97 73 56 41 6 45 48 46 103 156 136 123 131 136 146 143 139 134 127 122 118 112 108 102 97 91 87 83 78 75 73 70 68 66 65 63 62 62 61 60
290 278 261 240 248 231 135 138 101 83 86 91 102 284 92 83 93 113 139 123 129 133 140 145 144 142 137 132 128 123 118 113 107 102 97 91 86 82 79 76 73 71 69 67 65 63 62 61 59
270 267 254 238 250 270 122 115 104 98 110 152 142 41 56 87 111 129 134 132 133 136 140 140 146 145 140 136 133 128 124 118 113 107 102 96 90 85 81 79 76 73 71 69 65 63 61 60 58
265 245 244 253 262 35 85 104 111 130 135 206 206 120 87 52 78 112 129 142 138 137 133 142 149 147 144 141 137 134 130 124 119 113 107 100 95 89 85 82 79 75 72 69 66 62 60 57 55
244 254 242 253 250 80 72 89 118 169 154 157 276 109 103 89 99 119 144 149 144 140 135 146 152 151 149 147 142 138 135 131 126 120 115 109 103 97 92 87 83 78 73 68 65 61 57 53 49
254 256 251 231 172 136 121 120 191 222 143 143 210 133 111 131 125 140 149 151 144 137 136 146 155 154 153 151 148 145 142 139 134 130 125 120 114 107 101 95 87 81 75 69 62 59 54 51 44
271 268 272 266 149 159 142 145 212 231 195 142 120 38 121 142 136 143 150 157 142 138 137 146 155 156 157 156 155 152 150 146 143 138 133 128 124 120 113 107 97 86 73 63 55 48 43 39 32
298 284 268 270 201 168 127 135 347 334 350 68 54 335 126 139 141 148 153 153 141 141 144 152 159 160 158 156 158 157 155 152 150 145 141 140 142 140 136 127 118 102 80 59 45 28 3 345 322
281 273 267 265 263 131 124 168 168 23 308 249 143 72 118 134 146 146 147 149 147 152 154 158 163 162 161 160 161 157 157 156 153 152 153 155 167 164 158 136 144 152 163 189 303 296 293 283 270
225 261 277 335 6 28 108 206 189 201 242 240 181 118 125 140 155 162 168 172 168 169 169 163 163 160 161 161 155 162 163 159 167 164 169 184 180 151 141 145 170 196 221 236 245 258 274 271 248
229 248 274 318 15 360 330 274 256 246 247 250 219 154 153 163 174 183 188 183 176 174 174 168 161 158 158 153 159 163 162 164 182 171 174 177 158 138 136 163 181 211 221 231 235 247 249 259 256
252 255 275 305 47 302 287 286 273 254 256 275 317 139 161 176 188 195 197 190 174 173 176 170 164 158 159 157 161 159 160 164 169 167 172 165 149 149 157 179 185 204 209 212 241 258 271 291 292
242 253 252 247 223 249 273 273 271 266 265 262 225 166 185 194 198 199 201 192 173 172 172 174 167 161 160 159 162 163 161 159 159 157 165 152 145 152 159 200 181 215 220 252 292 294 305 311 319
269 264 248 236 229 232 252 265 258 254 255 253 221 209 213 215 209 200 196 191 175 170 171 173 173 166 163 165 167 162 158 157 152 152 161 161 153 159 175 219 198 214 200 256 276 296 318 313 323
277 272 262 231 223 216 254 265 245 240 238 239 233 219 214 217 210 205 193 187 177 169 168 172 175 171 168 170 171 161 160 158 155 159 166 167 166 168 180 208 199 203 195 294 324 333 335 324 322
239 246 248 221 206 187 204 262 274 218 207 228 238 237 218 210 207 200 190 179 176 166 167 171 173 175 172 171 168 161 163 160 157 158 165 172 171 173 178 184 197 183 120 43 348 332 342 333 337
227 234 237 222 197 184 208 259 275 260 228 232 235 239 232 212 203 198 187 174 172 166 164 167 168 175 173 169 164 162 162 158 157 158 161 168 172 174 162 171 177 131 100 61 336 344 3 341 332
222 232 240 235 196 204 233 260 271 270 256 249 244 241 238 221 204 194 181 168 166 166 164 164 166 174 169 163 160 151 152 154 153 156 162 168 171 164 153 157 150 113 112 100 325 331 349 328 320
270 277 275 274 225 219 251 266 271 268 260 255 254 250 244 238 204 178 167 159 157 161 166 166 167 175 169 166 164 161 165 161 159 163 166 164 162 159 150 146 144 128 134 159 54 43 1 336 354
248 262 272 279 271 265 268 273 272 261 251 244 249 257 264 259 219 165 153 154 159 167 173 170 170 175 172 168 166 163 156 159 156 153 157 159 161 156 151 153 152 141 133 109 78 76 33 333 14
233 243 258 279 303 263 267 275 261 251 235 227 222 225 242 235 224 170 161 163 163 172 178 174 171 173 170 163 154 142 129 128 143 158 162 167 162 158 152 155 149 147 145 156 166 142 144 271 310
235 231 246 270 281 279 270 285 273 249 233 216 206 196 200 214 222 176 165 169 173 175 167 165 167 169 170 163 160 159 162 166 174 167 165 169 166 158 156 159 156 154 152 160 176 159 166 164 252
227 200 231 248 262 272 264 264 264 233 231 211 174 147 147 166 203 180 167 166 162 154 153 160 163 171 171 168 165 168 170 171 159 158 162 168 165 161 161 162 160 161 162 166 167 163 178 181 200
182 180 240 247 253 254 235 236 267 229 215 164 127 120 132 155 170 164 149 144 143 141 152 163 169 174 171 171 171 177 177 170 160 161 166 168 165 167 167 164 166 169 166 170 173 182 199 211 218
181 180 208 210 213 236 207 218 245 213 138 125 111 100 112 145 158 167 157 154 152 157 168 175 175 176 175 177 180 183 180 173 170 167 170 168 168 172 178 170 174 174 172 172 174 188 208 213 218
192 196 202 208 220 227 195 223 239 187 145 135 139 132 126 141 159 170 171 168 165 167 175 182 183 180 179 182 185 184 178 173 172 171 168 173 173 175 171 170 173 176 175 176 179 193 211 211 218
191 211 231 275 291 286 242 226 222 191 162 158 152 143 148 156 160 167 172 172 171 173 181 187 186 183 183 183 182 180 177 174 170 166 162 165 162 160 161 166 173 179 178 179 182 201 214 214 221
215 189 195 214 226 242 249 238 226 191 186 173 160 158 161 158 160 167 174 177 177 176 178 183 186 185 183 181 182 180 177 173 164 160 163 161 157 154 158 167 173 177 182 187 192 204 214 220 229
199 205 202 203 225 224 244 246 206 170 161 158 159 159 159 162 170 177 178 175 173 170 172 179 184 181 182 180 178 175 174 167 161 162 164 161 158 158 165 170 174 181 188 193 199 211 216 225 237
204 207 204 205 217 221 246 264 142 133 137 146 160 163 159 162 165 170 172 168 169 173 176 181 184 183 181 176 172 173 170 163 163 166 164 159 159 162 165 168 176 186 191 196 204 217 223 228 238